Change the Weather History Date:

Monday, November 7, 2011

  Actual Average Record
Temperature  
Mean Temperature 82 °F -  
Max Temperature 86 °F 84 °F - ()
Min Temperature 77 °F 74 °F - ()
Cooling Degree Days 16    
Growing Degree Days 32 (Base 50)    
Moisture  
Dew Point 76 °F    
Average Humidity 82    
Maximum Humidity 89    
Minimum Humidity 68    
Precipitation  
Precipitation 0.02 in 0.16 in - ()
Sea Level Pressure  
Sea Level Pressure 29.87 in    
Wind  
Wind Speed 3 mph ()    
Max Wind Speed 9 mph    
Max Gust Speed -    
Visibility 6.3 miles    
Events Rain , Thunderstorm    
T = Trace of Precipitation, MM = Missing Value Source: Averaged Metar Reports

Daily Weather History Graph

Daily Weather History Graph

Search for Another Location

Airport or City:

Trip Planner

Search our weather history database for the weather conditions in past years. The results will help you decide how hot, cold, wet, or windy it might be!

Date:

Astronomy

Nov. 07, 2011 Rise Set
Actual Time 6:14 AM AST 5:37 PM AST
Civil Twilight 5:51 AM AST 6:00 PM AST
Nautical Twilight 5:25 AM AST 6:26 PM AST
Astronomical Twilight 4:59 AM AST 6:52 PM AST
Moon 3:31 PM AST (11/7) 3:31 AM AST (11/7)
Length of Visible Light 12h 08m
Length of Day
11h 23m
Waxing Gibbous, 91% of the Moon is Illuminated
Nov 7
Waxing Gibbous
Nov 10
Full
Nov 18
Last Quarter
Nov 25
New
Dec 2
First Quarter

Hourly Weather History & Observations

Time (AST) Temp. Heat Index Dew Point Humidity Pressure Visibility Wind Dir Wind Speed Gust Speed Precip Events Conditions
12:00 AM 80.6 °F 87.1 °F 77.0 °F 89% 29.92 in 6.2 mi Calm Calm - N/A   Partly Cloudy
1:00 AM 80.6 °F 87.1 °F 77.0 °F 89% 29.89 in 6.2 mi Variable 2.3 mph - N/A   Partly Cloudy
2:00 AM 82 °F - 76 °F 78% 29.90 in 28 mi 1.2 mph - -   Partly Cloudy
2:00 AM 82.4 °F 90.9 °F 77.0 °F 84% 29.89 in 6.2 mi Variable 1.2 mph - N/A   Partly Cloudy
3:00 AM 80.6 °F 87.1 °F 77.0 °F 89% 29.86 in 6.2 mi Variable 3.5 mph - N/A Rain Light Rain Showers
4:00 AM 80.6 °F 87.1 °F 77.0 °F 89% 29.83 in 6.2 mi Variable 3.5 mph - N/A   Partly Cloudy
5:00 AM 78 °F - 74 °F 84% 29.87 in 28 mi ENE 9.2 mph - -   Mostly Cloudy
5:00 AM 77.0 °F - 73.4 °F 89% 29.86 in 6.2 mi NE 9.2 mph - N/A   Mostly Cloudy
6:00 AM 78.8 °F - 75.2 °F 89% 29.86 in 6.2 mi Variable 1.2 mph - N/A Thunderstorm Thunderstorm
7:00 AM 80.6 °F 86.2 °F 75.2 °F 84% 29.89 in 6.2 mi Variable 3.5 mph - N/A   Scattered Clouds
8:00 AM 82.4 °F 90.9 °F 77.0 °F 84% 29.89 in 6.2 mi SE 5.8 mph - N/A   Scattered Clouds
9:00 AM 82.4 °F 90.9 °F 77.0 °F 84% 29.92 in 6.2 mi SSE 5.8 mph - N/A   Partly Cloudy
10:00 AM 82.4 °F 90.9 °F 77.0 °F 84% 29.92 in 6.2 mi Variable 3.5 mph - N/A Rain Light Rain Showers
11:00 AM 82.4 °F 90.9 °F 77.0 °F 84% 29.89 in 6.2 mi SSE 6.9 mph - N/A Rain Light Rain Showers
12:00 PM 84.2 °F 94.1 °F 77.0 °F 79% 29.89 in 6.2 mi SSE 5.8 mph - N/A Rain Light Rain
1:00 PM 84.2 °F 94.1 °F 77.0 °F 79% 29.86 in 6.2 mi Variable 1.2 mph - N/A   Scattered Clouds
2:00 PM 85 °F - 77 °F 71% 29.85 in 34 mi SW 2.3 mph - -   Partly Cloudy
2:00 PM 84.2 °F 94.1 °F 77.0 °F 79% 29.83 in 6.2 mi SSW 2.3 mph - N/A   Scattered Clouds
3:00 PM 86.0 °F 96.9 °F 77.0 °F 74% 29.83 in 6.2 mi Calm Calm - N/A   Scattered Clouds
4:00 PM 84.2 °F 94.1 °F 77.0 °F 79% 29.83 in 6.2 mi Variable 2.3 mph - N/A   Scattered Clouds
5:00 PM 84 °F - 75 °F 68% 29.85 in 6 mi West 2.3 mph - -   Mostly Cloudy
5:00 PM 84.2 °F 92.3 °F 75.2 °F 74% 29.83 in 6.2 mi West 2.3 mph - N/A   Mostly Cloudy
5:37 PM 80.6 °F 86.2 °F 75.2 °F 84% 29.86 in 5.0 mi ENE 9.2 mph - N/A Thunderstorm Thunderstorm
6:00 PM 80.6 °F 85.4 °F 73.4 °F 79% 29.86 in 6.2 mi ENE 9.2 mph - N/A Thunderstorm Thunderstorm
7:00 PM 78.8 °F - 73.4 °F 83% 29.86 in 6.2 mi ESE 2.3 mph - N/A   Mostly Cloudy
8:00 PM 79 °F - 75 °F 85% 29.87 in 9 mi ESE 2.3 mph - -  
8:00 PM 78.8 °F - 75.2 °F 89% 29.89 in 6.2 mi ESE 2.3 mph - N/A   Mostly Cloudy
9:00 PM 80.6 °F 86.2 °F 75.2 °F 84% 29.89 in 6.2 mi East 8.1 mph - N/A   Scattered Clouds
10:00 PM 80.6 °F 86.2 °F 75.2 °F 84% 29.89 in 6.2 mi ESE 8.1 mph - N/A   Partly Cloudy